星链-35846(STARLINK-35846)

导读 | 豆包AI

STARLINK-35848是美国太空探索技术公司SpaceX星链(Starlink)星座中的卫星,2025年11月6日发射入轨,属于星链低轨互联网星座组网的组成部分。它延续了星链卫星的设计,承担为全球范围提供高速卫星互联网接入的任务,推动星链星座完成全球覆盖部署进程。

Basic Information
目录编号:
66349
目录名称:
STARLINK-35848
国际标识:
2025-254B
轨道中心:
EARTH
卫星名称:
星链-35846
卫星全名:
星链-35846(STARLINK-35846)
卫星状态:
在轨 (已飞行128 天)
发射日期:
2025-11-06 UTC
国别 :
美国 (US)
星等 :
--
Orbit Information
数据来源 国际轨道数据 AOE轨道数据
星历时间 2026-03-14T03:03:17+0800
12小时前
查看轨道信息
2026-03-14T09:00:00+0800
6小时前
查看轨道信息
半长轴 6853.29km 6853.236km
偏心率 0.0000224 0.0000471
轨道倾角 53.159° 53.156°
近地点辐角 3.201° 94.296°
升交点赤经 213.419° 212.268°
平近点角 356.899° 191.274°
近地点 474.999km 474.776km
远地点 475.307km 475.422km
周期 94.104分钟 94.103分钟
每日圈数 15.302208 15.30239
Detailed Information
固有亮度:
5
最大亮度:
2.5
卫星平台:
Starlink V1.0
覆盖范围:
全球
运营商:
太空探索技术公司
运营商所在国:
美国
制造商(研发单位):
太空探索技术公司
制造商所在国:
美国
使用方式:
暂无
Satellite Introduction
Starlink 计划是 SpaceX 推出的全球卫星互联网项目,通过发射低轨道卫星,为全球尤其是偏远地区提供高速、低延迟的互联网服务。自 2019 年起,Starlink 已部署数千颗卫星,旨在缩小全球数字鸿沟,推动互联网普及。该项目还为军事、航空等行业提供通信支持,带来广泛经济效益。
2D Orbit Map
3D Orbit Map
Orbit Altitude Analysis Chart
Orbit Inclination Analysis Chart
Orbit Comprehensive Analysis Chart
View Comprehensive Chart